User: anonymous
Location: Unspecified
(0.0000°N, 0.0000°E)
Time: 23:07:02
(UTC+02:00)
Language:

SeaSat 1 - Orbit

View from above orbital plane
View from above orbital plane
View from above satellite
View from above satellite

Ground track
Ground track

The orbit data is extracted from the following two-line orbital elements,

1 10967U 78064A   14112.51771170  .00000499  00000-0  18955-3 0  2655
2 10967 107.9907 055.0525 0000968 290.5962 166.0435 14.42989183880444
Epoch (UTC): 22 April 2014 12:25:30
Eccentricity: 0.0000968
inclination: 107.9907°
perigee height: 748 km
apogee height: 749 km
right ascension of ascending node: 55.0525°
argument of perigee: 290.5962°
revolutions per day: 14.42989183
mean anomaly at epoch: 166.0435°
orbit number at epoch: 88044

The dashed part of the orbit path shows where the satellite is in the earth's shadow,  

DLR